Find Nadezhda

NORAD ID: 26384 Int'l Des: 2000-033 Owner: VMFR/VKSR Country: RU operational
LEOCIRCULARRETROGRADESSO

リアルタイム位置

3D地球を読み込み中...

Nadezhdaについて

説明を読み込み中...

次回通過

Passes for default location (London). Set your location on the main map for personalized predictions.

高度履歴

Loading altitude history...

軌道要素

1 26384U 00033A 26105.93044629 .00000391 00000-0 70958-4 0 9996
2 26384 97.8378 83.4754 0012815 186.3371 173.7676 14.71264030379031
Epoch: Apr 15, 2026 • Age: 6 hours

現在のステータス

高度 674.5 km
速度 7.52 km/s
衛星直下点 -58.87°S, 18.4°W
打ち上げ日 Jun 28, 2000
運用期間 25.7 years
タイプ other

技術仕様

分類 Payload
質量 870.00 kg
乾燥質量 870.00 kg
総質量 870.00 kg
長さ 5.00 m
直径 2.10 m
スパン 17.00 m
形状 Cyl + Ant
製造者 POL
バスタイプ KAUR-1 17F118
フェーズステータス In Orbit
所有者/国 VMFR/VKSR/RU

Most Searched